FW7968 Weather Reports


Display with metric or nautical units.
time (UTC)temp
F
wind
direction
speed
MPH
gust
MPH
rain 1hr
in
rain 24hr
in
rain mn
in
humidity
%
barometer
mb
20260507004603 46 279 0.0 2.0 0.00 0.53 0.52 93 1011.9
20260507003117 46 46 0.0 0.0 0.00 0.53 0.52 94 1011.6
20260507001616 46 44 0.0 2.0 0.00 0.53 0.52 93 1011.3
20260507000002 46 78 0.0 2.0 0.00 0.53 0.52 92 1011.0
20260506234551 46 306 0.0 2.0 0.00 0.53 0.52 93 1011.1
20260506233043 46 53 0.0 2.0 0.00 0.53 0.52 94 1010.7
20260506231545 46 344 0.0 4.0 0.00 0.53 0.52 94 1010.7
20260506230055 46 257 0.0 0.0 0.00 0.53 0.52 95 1010.6
20260506224548 46 303 0.0 2.0 0.00 0.53 0.52 95 1010.7
20260506223048 46 305 0.0 4.0 0.00 0.53 0.52 95 1010.6
20260506221604 46 315 0.0 2.0 0.00 0.53 0.52 95 1010.4
20260506220048 46 185 0.0 4.0 0.00 0.54 0.52 96 1010.1
20260506214554 47 175 0.0 4.0 0.00 0.54 0.52 95 1010.0
20260506213050 47 288 1.0 4.0 0.00 0.54 0.52 95 1010.0
20260506211551 47 143 0.0 2.0 0.00 0.54 0.52 95 1009.7
20260506210057 47 88 0.0 2.0 0.00 0.55 0.52 95 1009.6
20260506204556 47 105 0.0 0.0 0.00 0.55 0.52 95 1009.6
20260506203119 47 209 1.0 5.0 0.00 0.55 0.52 95 1009.4
20260506201557 47 347 3.0 6.0 0.00 0.55 0.52 95 1009.1
20260506194605 47 244 0.0 3.0 0.00 0.56 0.52 96 1009.0
20260506193107 47 172 1.0 5.0 0.00 0.56 0.52 95 1008.9
20260506191602 47 110 0.0 4.0 0.00 0.56 0.52 96 1008.7
20260506190104 47 90 1.0 5.0 0.00 0.56 0.52 97 1008.4
20260506184503 47 82 0.0 2.0 0.00 0.59 0.52 97 1008.6
20260506183002 47 118 0.0 4.0 0.00 0.59 0.52 96 1008.3
20260506181502 47 96 1.0 6.0 0.00 0.59 0.52 98 1008.1
20260506180005 46 120 1.0 4.0 0.00 0.64 0.52 98 1008.4
20260506174505 46 92 0.0 2.0 0.01 0.64 0.52 98 1008.1
20260506173007 46 55 0.0 4.0 0.01 0.64 0.52 99 1007.9
20260506171507 46 103 0.0 2.0 0.03 0.64 0.52 99 1007.4
20260506170009 46 97 0.0 2.0 0.04 0.64 0.52 98 1007.5
20260506164530 46 67 0.0 4.0 0.04 0.63 0.51 99 1007.3
20260506163014 45 90 0.0 2.0 0.05 0.63 0.51 98 1007.3
20260506161512 45 78 0.0 1.0 0.05 0.61 0.49 98 1007.6
20260506160013 45 184 0.0 4.0 0.05 0.60 0.48 98 1007.2
20260506154513 45 90 0.0 4.0 0.07 0.59 0.47 97 1007.2
20260506153014 46 133 0.0 3.0 0.09 0.57 0.46 97 1006.7
20260506151516 46 136 0.0 1.0 0.07 0.56 0.44 96 1006.1
20260506150016 47 90 0.0 4.0 0.06 0.54 0.42 96 1006.1
20260506144524 48 65 0.0 1.0 0.04 0.52 0.40 94 1005.9
20260506143020 50 37 0.0 4.0 0.02 0.49 0.37 92 1005.9
20260506141528 54 347 1.0 5.0 0.02 0.49 0.37 94 1005.1
20260506140022 55 138 0.0 2.0 0.02 0.48 0.36 97 1004.8
20260506134523 55 304 0.0 5.0 0.03 0.48 0.36 97 1004.8
20260506133024 55 263 1.0 4.0 0.04 0.47 0.35 97 1005.0
20260506131525 55 173 0.0 5.0 0.07 0.47 0.35 97 1005.1
20260506130027 55 119 0.0 2.0 0.09 0.46 0.34 97 1005.1
20260506124527 55 188 2.0 8.0 0.11 0.45 0.33 97 1005.1
20260506123029 55 155 1.0 7.0 0.09 0.43 0.31 97 1005.2
20260506121530 55 169 1.0 7.0 0.08 0.40 0.28 96 1005.2